Location: Clairmont
(55.2667°N, 118.8000°W)
Time: 00:15:19
(UTC+00:00)

Envisat - Pass Details

Date: 29 October 2020
Orbit: 764 x 766 km, 98.1° (Epoch: 04 December)

Event Time Altitude Azimuth Distance (km) Brightness Sun altitude
Rises 02:02:08 0° 202° (SSW) 3,225 6.6 -14.4°
Reaches altitude 10° 02:04:50 10° 216° (SW) 2,304 6.0 -14.8°
Maximum altitude 02:08:57 24° 270° (W) 1,543 5.5 -15.4°
Drops below altitude 10° 02:13:05 10° 324° (NW) 2,317 6.0 -16.0°
Sets 02:15:49 0° 338° (NNW) 3,249 6.5 -16.4°
